www.pogodaiklimat.ru

Погода и климат >> Архив погоды >> Багамские Острова >> Nassau


АРХИВ ПОГОДЫ в Nassau

Время (UTC), дата Ветер
(напр.,м/с)
 
Видим.   Явления Облачность Т
(С)
Тd
(С)
f
(%)
Тe
(С)
Тes
(С)
Комфортность P
(гПа)
Po
(гПа)
Тmin
(С)
Tmax
(С)
R
(мм)
R24
(мм)
S
(см)
06 13.01 штиль 0 13 км 5/5 540 м
[Cu Sc]
+24.0 +23.4 96 +32 +32 очень
душно
1016.6 1017.0
09 13.01 штиль 0 13 км 5/5 540 м
[Cu Sc]
+23.6 +22.9 96 +31 +31 очень
душно
1016.1 1016.0
12 13.01 штиль 0 13 км {ливн. осадки} 8/8 360 м
[Cb cap]
+23.8 +23.0 95 +32 +32 очень
душно
1017.2 1017.0 +22.5 +24.7 0.2
15 13.01 З 2 13 км 8/6 480 м
[Cu Sc As op]
+27.0 +24.3 85 +38 +40 очень
душно
1018.8 1019.0
21 13.01 СЗ 6 13 км 8/8 360 м
[Cb calv]
+25.4 +22.3 83 +33 +33 очень
душно
1017.4 1017.0
00 14.01 С 6 13 км 9/9 360 м
[Cb calv]
+24.0 +20.5 81 +30 +30 очень
душно
1019.4 1019.0 +22.5 +27.4
03 14.01 С 7 13 км 9/9 450 м
[Cu Sc]
+23.4 +18.6 74 +30 +30 очень
душно
1021.0 1021.0
06 14.01 С 4 13 км 9/9 600 м
[Cu Sc]
+23.0 +18.5 76 +29 +29 очень
душно
1020.2 1020.0
09 14.01 С 7 13 км 9/9 600 м
[Cu Sc]
+22.2 +18.6 80 +27 +27 душно 1019.3 1019.0
12 14.01 С 6 13 км 10/10 600 м
[Cu Sc]
+22.2 +18.0 77 +27 +27 душно 1020.7 1021.0 +21.9 +27.4
15 14.01 С 6 13 км 9/9 540 м
[Cu Sc]
+23.0 +18.4 75 +29 +29 очень
душно
1022.4 1022.0
18 14.01 СЗ 6 13 км 9/8 1050 м
[Cu Sc Ac lent Ci sp]
+22.1 +18.8 82 +27 +28 душно 1020.8 1021.0
21 14.01 С 5 13 км 9/8 540 м
[Cu Sc As op]
+21.8 +17.5 77 +26 +26 душно 1019.4 1019.0
03 15.01 С 5 13 км 10/8 540 м
[Cu Sc As op]
+20.5 +17.9 85 +24 +24 комфорт 1021.5 1022.0
06 15.01 СЗ 6 13 км 10/8 540 м
[Cu Sc As op]
+22.0 +17.3 75 +26 +26 душно 1020.4 1020.0
09 15.01 С 6 13 км 9/6 540 м
[Cu Sc As op]
+22.0 +16.3 70 +26 +26 душно 1019.7 1020.0
12 15.01 С 4 13 км 9/8 540 м
[Cu Sc Ac trans Ci sp]
+22.1 +17.9 77 +27 +27 душно 1020.6 1021.0 +19.9 +23.5
15 15.01 С 7 13 км 9/8 540 м
[Cu Sc Ac trans Ci sp]
+24.2 +20.7 81 +30 +31 очень
душно
1022.4 1022.0
18 15.01 С 7 13 км 8/8 540 м
[Cu Sc Ac trans Ci sp]
+25.6 +21.6 79 +33 +33 очень
душно
1021.1 1021.0
21 15.01 С 7 13 км {ливн. осадки} 9/8 540 м
[Cu Sc As op]
+23.8 +18.1 70 +28 +28 душно 1020.6 1021.0
00 16.01 С 7 13 км {ливн. осадки} 9/8 300 м
[Cu Sc As op]
+22.9 +16.9 69 +28 +28 душно 1021.6 1022.0 +20.2 +25.2 0.0
03 16.01 С 8 13 км 9/8 540 м
[Cu Sc As op]
+22.9 +16.9 69 +28 +28 душно 1023.1 1023.0
06 16.01 С 6 13 км 9/6 540 м
[Cu Sc Ci sp]
+22.9 +16.9 69 +28 +28 душно 1022.0 1022.0
09 16.01 С 7 13 км 9/6 540 м
[Cu Sc Ci sp]
+22.9 +16.6 68 +28 +28 душно 1021.2 1021.0
12 16.01 С 6 13 км 8/6 540 м
[Cu Sc Ci sp]
+22.7 +17.4 72 +28 +28 душно 1022.0 1022.0 +21.0 +24.4
15 16.01 СВ 8 13 км 8/8 600 м
[Cu Sc Ci sp]
+24.6 +18.3 68 +29 +29 душно 1023.6 1024.0
18 16.01 СВ 8 13 км 8/8 600 м
[Cu Sc]
+25.8 +19.5 68 +31 +32 очень
душно
1022.0 1022.0
21 16.01 СВ 6 13 км 9/9 600 м
[Cu Sc]
+24.1 +18.5 71 +29 +29 душно 1020.9 1021.0
00 17.01 С 5 13 км 9/9 900 м
[Cu Sc]
+23.8 +19.0 75 +29 +29 душно 1012.6 1013.0 +21.0 +25.8
03 17.01 СВ 5 13 км слабый ливневой дождь 9/9 900 м
[Cu Sc]
+23.9 +18.2 70 +28 +28 душно 1021.9 1022.0
06 17.01 С 3 13 км {ливн. осадки} 9/8 540 м
[Cu Sc As op]
+23.8 +18.9 74 +29 +29 душно 1020.8 1021.0 0.0
09 17.01 С 5 13 км {ливн. осадки} 9/5 540 м
[Cu Sc Ci sp]
+23.5 +19.1 76 +28 +28 душно 1019.6 1020.0
12 17.01 С 5 11 км 9/5 540 м
[Cu Sc Ci sp]
+23.9 +19.2 75 +29 +29 душно 1020.3 1020.0 +21.4 +25.8
15 17.01 С 4 11 км слабый ливневой дождь 10/8 480 м
[Cu Sc As op]
+24.0 +20.1 79 +30 +30 очень
душно
1022.1 1022.0
18 17.01 С 4 9000 м слабый дождь {ливн. осадки} 10/8 480 м
[Cu Sc As op]
+22.3 +20.0 87 +28 +29 душно 1020.6 1021.0 0.7
21 17.01 СЗ 3 13 км {дождь} 10/8 450 м
[Cu Sc Ac As]
+22.4 +18.2 77 +28 +28 душно 1019.8 1020.0
00 18.01 СЗ 4 13 км {ливн. осадки} 10/6 450 м
[Cu Sc Ac As]
+22.0 +16.1 69 +26 +26 душно 1020.4 1020.0 +20.6 +24.6 0.0
03 18.01 СЗ 3 13 км 10/8 450 м
[Cu Sc Ac As]
+22.4 +17.5 74 +27 +27 душно 1021.4 1021.0
06 18.01 0 н/о +22.2 +15.9 67 -27 -27 очень
холодно
1020.8 1020.5
09 18.01 СЗ 6 13 км 10/8 540 м
[Cu Sc Ac As]
+21.8 +13.7 60 +25 +25 комфорт 1020.2 1020.0
12 18.01 С 10 13 км 9/8 540 м
[Cu Sc Ac As Ci fib]
+21.6 +15.9 70 +25 +25 комфорт 1020.9 1021.0 +20.6 +24.6
15 18.01 СЗ 6 13 км 9/8 540 м
[Cu Sc Ac trans Ci fib]
+20.8 +14.2 66 +23 +24 комфорт 1023.4 1023.0
18 18.01 С 6 13 км 9/8 540 м
[Cu Sc Ac trans Ci fib]
+20.0 +13.0 64 +22 +22 комфорт 1022.6 1023.0
21 18.01 С 6 15 км 6/5 600 м
[Cu Sc Ac trans Ci sp]
+19.4 +11.6 61 +20 +21 прохладно 1021.8 1022.0
00 19.01 С 4 15 км 8/6 1050 м
[Sc Ac trans Ci sp]
+18.0 +11.1 64 +18 +18 прохладно 1022.5 1023.0 +17.3 +23.5
03 19.01 С 4 15 км 8/6 1050 м
[Sc Ac trans Ci sp]
+18.0 +12.6 71 +18 +18 прохладно 1023.9 1024.0
06 19.01 С 4 15 км 8/8 600 м
[Cu Sc Ac trans Ci sp]
+18.9 +13.1 69 +20 +20 по сезону 1023.1 1023.0
12 19.01 СВ 2 15 км 8/5 600 м
[Cu Sc Ac trans Ci fib]
+19.1 +12.6 66 +21 +21 комфорт 1023.0 1023.0 +17.2 +23.5
15 19.01 СВ 4 15 км 9/5 900 м
[Cu Sc Ac lent Ci sp]
+22.0 +13.0 57 +25 +26 комфорт 1025.0 1025.0
18 19.01 СВ 5 15 км 9/5 900 м
[Cu Sc Ac lent Ci sp]
+23.0 +13.3 54 +26 +28 жарко 1023.5 1024.0
21 19.01 СВ 4 15 км 8/5 600 м
[Cu Sc Ac As Ci fib]
+23.8 +14.4 56 +26 +27 жарко 1022.5 1023.0
00 20.01 СВ 3 13 км 8/5 600 м
[Cu Sc Ac As Ci fib]
+21.0 +14.6 67 +24 +24 комфорт 1022.2 1022.0 +17.2 +23.2

 

Местоположение метеостанции Nassau (Багамские Острова): широта 25.05 долгота -77.46 высота над уровнем моря 7 м.

В архиве по умолчанию представлена погода в Nassau за последнюю неделю. Архивные данные за месяц целиком и за предыдущие месяцы, начиная с января 2011 года, Вы можете получить, выбрав интересующий диапазон дат из раскрывающегося списка и нажав кнопку "Ввод!".

Внимание! Время в таблицах - всемирное. Для получения местного времени необходимо прибавить поправку, которая в Nassau равна -4 ч.

Смотрите также архив погоды в соседних городах и на ближайших метеорологических станциях:

Погода в Grand Bahama (Багамские Острова) (208 км)
Погода в Cayo Coco (Куба) (295 км)
Погода в Caibarien (Куба) (347 км)
Погода в El Yabu (Куба) (385 км)
Погода в Nuevitas (Куба) (392 км)
Погода в Sancti Spiritus (Куба) (402 км)
Погода в Camaguey airport (Куба) (406 км)
Погода в Jucaro (Куба) (407 км)
Погода в Camaguey (Куба) (408 км)
Погода в Puerto Padre (Куба) (437 км)

Пояснения к столбцам:

Ветер - указаны скорость ветра в м/с - средняя за 10 мин, порывы в срок и между сроками (в фигурных скобках) и направление, откуда дует ветер: С - северный, СВ - северо-восточный, В - восточный, ЮВ - юго-восточный, Ю - южный, ЮЗ - юго-западный, З - западный, СЗ - северо-западный.
Видимость - горизонтальная дальность видимости в метрах или километрах. При видимости от 1 до 10 км при отсутствии осадков обычно наблюдается дымка, при ухудшении видимости до 1 км и менее - туман. В сухую погоду видимость может ухудшаться дымом, пылью или мглою.
Явления - указаны атмосферные явления, наблюдавшиеся в срок или в последний час перед сроком; фигурными скобками обозначены явления, наблюдавшиеся между сроками (за 1-3 часа до срока); квадратными скобками обозначены град или гололедные отложения с указанием их диаметра в мм.
Облачность - указаны через наклонную черту общая и нижняя облачность в баллах и высота нижней границы облаков в метрах; квадратными скобками обозначены формы облаков: Ci - перистые, Cs - перисто-слоистые, Cc - перисто-кучевые, Ac - высококучевые, As - высокослоистые, Sc - слоисто-кучевые, Ns - слоисто-дождевые, Cu - кучевые, Cb - кучево-дождевые. Подробнее классификацию облаков см. в Атласе облаков (PDF).
T - Температура воздуха - температура, измеренная на высоте 2 м над землей.
Td - Температура точки росы - температура, при понижении до которой содержащийся в воздухе водяной пар достигнет насыщения.
f - Относительная влажность воздуха - влажноcть воздуха, измеренная на высоте 2 м над землей.
Te - Эффективная температура - температура, которую ощущает одетый по сезону человек в тени. Характеристика душности погоды. При расчете учитывается влияние влажности воздуха и скорости ветра на теплоощущения человека.
Tes - Эффективная температура на солнце - температура, которую ощущает человек, с поправкой на солнечный нагрев. Характеристика знойности погоды. Зависит от высоты солнца над горизонтом, облачности и скорости ветра. Ночью, в пасмурную погоду, а также при ветре 12 м/с и более поправка равна нулю.
P - Атмосферное давление - приведенное к уровню моря атмосферное давление.
Po - Атмосферное давление - измеренное на уровне метеостанции атмосферное давление.
Tmin - Минимальная температура - минимум температуры воздуха на высоте 2 м над землей.
Tmax - Максимальная температура - максимум температуры воздуха на высоте 2 м над землей.
R - Количество осадков - Количество выпавших осадков за период времени, мм. При наведении курсора мыши на число - период времени, за который выпало указанное количество осадков.
R24 - Количество осадков - Количество выпавших осадков за 24 часа, мм.
S - Снежный покров - Высота снежного покрова, см. При наведении курсора мыши на число - состояние снежного покрова и степень покрытия местности в баллах.